Minden, LA

9:22 PM CDT on April 19, 2018 (GMT -0500)
Minden

Weather History for KMNE - January, 2013

Change the Weather History Date:

Wednesday, January 9, 2013

  Actual Average (KBAD) Record (KBAD)
Temperature  
Mean Temperature 58 °F -  
Max Temperature 60 °F 54 °F 75 °F (2003)
Min Temperature 56 °F 36 °F 26 °F (2015)
Degree Days  
Heating Degree Days 8    
Growing Degree Days 8 (Base 50)    
Moisture  
Dew Point 56 °F    
Average Humidity 92    
Maximum Humidity 94    
Minimum Humidity 91    
Precipitation  
Precipitation 1.07 in - - ()
Sea Level Pressure  
Sea Level Pressure 30.12 in    
Wind  
Wind Speed 6 mph (ENE)    
Max Wind Speed 17 mph    
Max Gust Speed 26 mph    
Visibility 6 miles    
Events Rain    
Averages and records for this station are not official NWS values.
T = Trace of Precipitation, MM = Missing Value Source: NWS Daily Summary

Daily Weather History Graph

Daily Weather History Graph

Search for Another Location

Airport or City:

Astronomy

Jan. 09, 2013 Rise Set
Actual Time 7:16 AM CST 5:25 PM CST
Civil Twilight 6:49 AM CST 5:51 PM CST
Nautical Twilight 6:18 AM CST 6:22 PM CST
Astronomical Twilight 5:48 AM CST 6:52 PM CST
Moon 4:55 AM CST (1/9) 3:27 PM CST (1/9)
Length of Visible Light 11h 02m
Length of Day
10h 09m
Waning Crescent, 6% of the Moon is Illuminated
Jan 9
Waning Crescent
Jan 11
New
Jan 18
First Quarter
Jan 26
Full
Feb 3
Last Quarter

Hourly Weather History & Observations

Time (CST) Temp. Dew Point Humidity Pressure Visibility Wind Dir Wind Speed Gust Speed Precip Events Conditions
12:15 AM 56.3 °F 54.1 °F 92% 30.09 in 7.0 mi ESE 5.8 mph - N/A   Overcast
12:35 AM 56.7 °F 54.7 °F 93% 30.09 in 10.0 mi East 5.8 mph - N/A   Overcast
12:55 AM 57.2 °F 55.0 °F 92% 30.08 in 5.0 mi East 4.6 mph - N/A   Overcast
1:55 AM 57.4 °F 55.6 °F 94% 30.09 in 1.5 mi ENE 4.6 mph - N/A   Overcast
2:15 AM 57.4 °F 55.6 °F 94% 30.08 in 1.8 mi East 5.8 mph - N/A   Overcast
2:35 AM 57.2 °F 55.4 °F 94% 30.07 in 2.5 mi East 8.1 mph - N/A   Overcast
2:55 AM 57.4 °F 55.6 °F 94% 30.07 in 3.0 mi East 6.9 mph - N/A   Overcast
3:15 AM 57.6 °F 55.8 °F 94% 30.09 in 5.0 mi ENE 4.6 mph - N/A   Overcast
3:35 AM 57.4 °F 55.6 °F 94% 30.09 in 3.0 mi ENE 4.6 mph - N/A   Overcast
3:55 AM 57.6 °F 55.8 °F 94% 30.10 in 2.5 mi NE 4.6 mph - N/A   Overcast
4:15 AM 57.6 °F 55.8 °F 94% 30.10 in 1.8 mi NE 5.8 mph - N/A   Overcast
4:55 AM 57.6 °F 55.8 °F 94% 30.10 in 1.0 mi NE 5.8 mph - N/A   Overcast
5:15 AM 57.6 °F 55.9 °F 94% 30.11 in 1.5 mi ENE 4.6 mph - N/A   Overcast
5:35 AM 57.7 °F 55.9 °F 94% 30.11 in 1.8 mi ENE 3.5 mph - N/A   Overcast
5:55 AM 58.1 °F 56.3 °F 94% 30.12 in 2.0 mi ENE 4.6 mph - N/A   Overcast
6:15 AM 58.1 °F 56.5 °F 94% 30.13 in 2.5 mi ENE 4.6 mph - N/A   Overcast
6:35 AM 58.1 °F 56.3 °F 94% 30.13 in 2.5 mi ENE 5.8 mph - N/A   Overcast
6:55 AM 58.1 °F 56.3 °F 94% 30.14 in 2.0 mi ENE 4.6 mph - N/A   Overcast
7:35 AM 57.7 °F 55.9 °F 94% 30.15 in 1.5 mi ENE 4.6 mph - N/A   Overcast
7:55 AM 57.7 °F 55.8 °F 93% 30.16 in 1.8 mi ENE 3.5 mph - N/A   Overcast
8:15 AM 57.7 °F 55.8 °F 93% 30.17 in 2.0 mi ENE 4.6 mph - N/A   Overcast
8:35 AM 57.7 °F 55.8 °F 93% 30.17 in 2.5 mi ENE 6.9 mph - N/A   Overcast
8:55 AM 57.9 °F 55.8 °F 92% 30.17 in 3.0 mi ENE 6.9 mph - N/A   Overcast
9:15 AM 58.1 °F 55.8 °F 92% 30.18 in 5.0 mi NE 4.6 mph - N/A   Overcast
9:35 AM 58.3 °F 55.9 °F 92% 30.18 in 7.0 mi ENE 9.2 mph - N/A Rain Light Rain
9:55 AM 58.5 °F 55.9 °F 91% 30.19 in 10.0 mi ENE 5.8 mph - N/A   Overcast
10:15 AM 58.5 °F 55.9 °F 91% 30.19 in 7.0 mi ENE 8.1 mph - 0.01 in Rain Light Rain
10:35 AM 58.3 °F 55.9 °F 92% 30.18 in 5.0 mi East 6.9 mph - 0.03 in Rain Rain
10:55 AM 58.5 °F 56.1 °F 92% 30.18 in 5.0 mi East 4.6 mph - 0.07 in Rain Light Rain
11:15 AM 58.5 °F 56.3 °F 93% 30.17 in 7.0 mi ENE 5.8 mph - 0.01 in Rain Light Rain
11:35 AM 58.6 °F 56.3 °F 92% 30.16 in 10.0 mi ENE 6.9 mph - 0.02 in Rain Rain
11:55 AM 59.0 °F 56.5 °F 91% 30.15 in 10.0 mi East 9.2 mph - 0.03 in Rain Light Rain
12:15 PM 59.0 °F 56.5 °F 91% 30.15 in 10.0 mi East 5.8 mph - 0.02 in Rain Light Rain
12:35 PM 59.0 °F 56.5 °F 91% 30.13 in 7.0 mi ENE 8.1 mph - 0.04 in Rain Rain
12:55 PM 59.0 °F 56.5 °F 91% 30.12 in 4.0 mi NE 8.1 mph - 0.10 in Rain Rain
1:15 PM 59.0 °F 56.5 °F 91% 30.11 in 7.0 mi ENE 6.9 mph - 0.03 in Rain Rain
1:35 PM 59.0 °F 56.5 °F 91% 30.11 in 7.0 mi ENE 6.9 mph - 0.06 in Rain Light Rain
1:55 PM 59.0 °F 56.5 °F 91% 30.10 in 7.0 mi NE 8.1 mph - 0.08 in Rain Rain
2:15 PM 59.0 °F 56.3 °F 91% 30.10 in 10.0 mi ENE 8.1 mph - 0.02 in Rain Rain
2:35 PM 59.0 °F 56.3 °F 91% 30.11 in 7.0 mi ENE 4.6 mph - 0.05 in Rain Rain
2:55 PM 59.0 °F 56.3 °F 91% 30.11 in 10.0 mi ENE 6.9 mph - 0.08 in Rain Light Rain
3:15 PM 59.0 °F 56.3 °F 91% 30.12 in 10.0 mi Calm Calm - 0.02 in Rain Rain
3:35 PM 59.0 °F 56.3 °F 91% 30.13 in 10.0 mi ENE 5.8 mph - 0.03 in Rain Light Rain
3:55 PM 58.8 °F 56.3 °F 91% 30.13 in 10.0 mi ENE 4.6 mph - 0.05 in Rain Rain
4:15 PM 58.8 °F 56.3 °F 91% 30.13 in 7.0 mi ENE 5.8 mph - 0.03 in Rain Rain
4:35 PM 58.6 °F 56.3 °F 92% 30.13 in 5.0 mi East 8.1 mph - 0.08 in Rain Rain
4:55 PM 58.6 °F 56.3 °F 92% 30.13 in 10.0 mi ENE 4.6 mph - 0.11 in Rain Light Rain
5:15 PM 58.5 °F 56.1 °F 92% 30.12 in 10.0 mi ENE 4.6 mph - 0.01 in Rain Light Rain
5:35 PM 58.5 °F 56.1 °F 92% 30.15 in 7.0 mi East 5.8 mph - 0.07 in Rain Heavy Rain
5:55 PM 58.3 °F 55.9 °F 92% 30.16 in 5.0 mi ESE 3.5 mph - 0.15 in Rain Heavy Rain
6:15 PM 58.3 °F 55.9 °F 92% 30.17 in 7.0 mi ENE 3.5 mph - 0.05 in Rain Rain
6:35 PM 58.1 °F 55.8 °F 92% 30.16 in 7.0 mi ENE 5.8 mph - 0.12 in Rain Rain
6:55 PM 58.1 °F 55.8 °F 92% 30.16 in 5.0 mi ENE 6.9 mph - 0.21 in Rain Heavy Rain
7:15 PM 58.1 °F 55.6 °F 91% 30.16 in 5.0 mi ENE 6.9 mph - 0.06 in Rain Rain
7:35 PM 58.1 °F 55.6 °F 91% 30.15 in 10.0 mi NE 9.2 mph - 0.10 in Rain Rain
7:55 PM 57.9 °F 55.6 °F 92% 30.14 in 10.0 mi East 9.2 mph - 0.12 in Rain Light Rain
8:15 PM 57.7 °F 55.4 °F 92% 30.07 in 7.0 mi East 17.3 mph 26.5 mph 0.03 in Rain Light Rain
8:35 PM 58.1 °F 55.6 °F 91% 30.10 in 10.0 mi East 16.1 mph 26.5 mph 0.04 in Rain Light Rain
8:55 PM 58.3 °F 55.8 °F 91% 30.11 in 10.0 mi East 13.8 mph 19.6 mph 0.05 in Rain Light Rain
9:15 PM 58.3 °F 55.9 °F 92% 30.10 in 7.0 mi East 12.7 mph 23.0 mph 0.01 in Rain Light Rain
9:35 PM 58.5 °F 56.3 °F 93% 30.10 in 10.0 mi East 15.0 mph 21.9 mph 0.01 in   Overcast
9:55 PM 58.6 °F 56.3 °F 92% 30.07 in 10.0 mi East 13.8 mph 20.7 mph 0.01 in Rain Light Rain
10:15 PM 59.0 °F 56.3 °F 91% 30.08 in 10.0 mi East 16.1 mph 20.7 mph 0.01 in Rain Light Rain
10:35 PM 59.0 °F 56.5 °F 91% 30.07 in 10.0 mi East 9.2 mph 17.3 mph 0.01 in Rain Light Rain
10:55 PM 59.2 °F 56.7 °F 91% 30.07 in 10.0 mi ENE 9.2 mph - 0.01 in   Overcast
11:35 PM 59.9 °F 57.6 °F 92% 30.09 in 10.0 mi Calm Calm - N/A Rain Rain
11:55 PM 60.3 °F 57.9 °F 92% 30.08 in 10.0 mi East 5.8 mph - N/A   Overcast